owner,sensor,date,latitude,longitude,air_pressure(mBar),qcFlag 
SCCF RECON,ioos:station:SCCF:16:1,2017-12-01T05:45:00Z,26.4345,-81.9647,1017.1,1111122 
SCCF RECON,ioos:station:SCCF:16:1,2017-12-01T06:45:00Z,26.4345,-81.9647,1017.1,1111122 
SCCF RECON,ioos:station:SCCF:16:1,2017-12-01T07:45:00Z,26.4345,-81.9647,1016.9,1111122 
SCCF RECON,ioos:station:SCCF:16:1,2017-12-01T08:45:00Z,26.4345,-81.9647,1016.9,1111122 
SCCF RECON,ioos:station:SCCF:16:1,2017-12-01T09:45:00Z,26.4345,-81.9647,1016.9,1111122 
SCCF RECON,ioos:station:SCCF:16:1,2017-12-01T10:45:00Z,26.4345,-81.9647,1017.4,1111122 
SCCF RECON,ioos:station:SCCF:16:1,2017-12-01T11:45:00Z,26.4345,-81.9647,1017.8,1111122 
SCCF RECON,ioos:station:SCCF:16:1,2017-12-01T12:45:00Z,26.4345,-81.9647,1018.5,1111122 
SCCF RECON,ioos:station:SCCF:16:1,2017-12-01T13:45:00Z,26.4345,-81.9647,1019.1,1111122 
SCCF RECON,ioos:station:SCCF:16:1,2017-12-01T14:45:00Z,26.4345,-81.9647,1019.4,1111122 
SCCF RECON,ioos:station:SCCF:16:1,2017-12-01T15:45:00Z,26.4345,-81.9647,1019.0,1111122 
SCCF RECON,ioos:station:SCCF:16:1,2017-12-01T16:45:00Z,26.4345,-81.9647,1018.4,1111122 
SCCF RECON,ioos:station:SCCF:16:1,2017-12-01T17:45:00Z,26.4345,-81.9647,1017.5,1111122 
SCCF RECON,ioos:station:SCCF:16:1,2017-12-01T18:45:00Z,26.4345,-81.9647,1016.9,1111122 
SCCF RECON,ioos:station:SCCF:16:1,2017-12-01T19:45:00Z,26.4345,-81.9647,1016.4,1111122 
SCCF RECON,ioos:station:SCCF:16:1,2017-12-01T20:45:00Z,26.4345,-81.9647,1016.3,1111122 
SCCF RECON,ioos:station:SCCF:16:1,2017-12-01T21:45:00Z,26.4345,-81.9647,1016.3,1111122 
SCCF RECON,ioos:station:SCCF:16:1,2017-12-01T22:45:00Z,26.4345,-81.9647,1016.9,1111122 
SCCF RECON,ioos:station:SCCF:16:1,2017-12-02T05:45:00Z,26.4345,-81.9647,1019.1,1111122 
SCCF RECON,ioos:station:SCCF:16:1,2017-12-02T06:45:00Z,26.4345,-81.9647,1018.6,1111122 
SCCF RECON,ioos:station:SCCF:16:1,2017-12-02T07:45:00Z,26.4345,-81.9647,1018.3,1111122 
SCCF RECON,ioos:station:SCCF:16:1,2017-12-02T08:45:00Z,26.4345,-81.9647,1018.3,1111122 
SCCF RECON,ioos:station:SCCF:16:1,2017-12-02T09:45:00Z,26.4345,-81.9647,1018.2,1111122 
SCCF RECON,ioos:station:SCCF:16:1,2017-12-02T10:45:00Z,26.4345,-81.9647,1018.4,1111122 
SCCF RECON,ioos:station:SCCF:16:1,2017-12-02T11:45:00Z,26.4345,-81.9647,1019.2,1111122 
SCCF RECON,ioos:station:SCCF:16:1,2017-12-02T12:45:00Z,26.4345,-81.9647,1019.9,1111122 
SCCF RECON,ioos:station:SCCF:16:1,2017-12-02T13:45:00Z,26.4345,-81.9647,1020.0,1111122 
SCCF RECON,ioos:station:SCCF:16:1,2017-12-02T14:45:00Z,26.4345,-81.9647,1020.7,1111122 
SCCF RECON,ioos:station:SCCF:16:1,2017-12-02T15:45:00Z,26.4345,-81.9647,1020.5,1111122 
SCCF RECON,ioos:station:SCCF:16:1,2017-12-02T16:45:00Z,26.4345,-81.9647,1019.7,1111122 
SCCF RECON,ioos:station:SCCF:16:1,2017-12-02T17:45:00Z,26.4345,-81.9647,1018.7,1111122 
SCCF RECON,ioos:station:SCCF:16:1,2017-12-02T18:45:00Z,26.4345,-81.9647,1017.9,1111122 
SCCF RECON,ioos:station:SCCF:16:1,2017-12-02T19:45:00Z,26.4345,-81.9647,1017.5,1111122 
SCCF RECON,ioos:station:SCCF:16:1,2017-12-02T20:45:00Z,26.4345,-81.9647,1017.2,1111122 
SCCF RECON,ioos:station:SCCF:16:1,2017-12-02T21:45:00Z,26.4345,-81.9647,1017.2,1111122 
SCCF RECON,ioos:station:SCCF:16:1,2017-12-02T22:45:00Z,26.4345,-81.9647,1017.7,1111122 
SCCF RECON,ioos:station:SCCF:16:1,2017-12-03T05:45:00Z,26.4345,-81.9647,1019.4,1111122 
SCCF RECON,ioos:station:SCCF:16:1,2017-12-03T06:45:00Z,26.4345,-81.9647,1018.9,1111122 
SCCF RECON,ioos:station:SCCF:16:1,2017-12-03T07:45:00Z,26.4345,-81.9647,1018.6,1111122 
SCCF RECON,ioos:station:SCCF:16:1,2017-12-03T08:45:00Z,26.4345,-81.9647,1018.5,1111122 
SCCF RECON,ioos:station:SCCF:16:1,2017-12-03T09:45:00Z,26.4345,-81.9647,1018.6,1111122 
SCCF RECON,ioos:station:SCCF:16:1,2017-12-03T10:45:00Z,26.4345,-81.9647,1018.6,1111122 
SCCF RECON,ioos:station:SCCF:16:1,2017-12-03T11:45:00Z,26.4345,-81.9647,1019.2,1111122 
SCCF RECON,ioos:station:SCCF:16:1,2017-12-03T12:45:00Z,26.4345,-81.9647,1019.6,1111122 
SCCF RECON,ioos:station:SCCF:16:1,2017-12-03T13:45:00Z,26.4345,-81.9647,1020.0,1111122 
SCCF RECON,ioos:station:SCCF:16:1,2017-12-03T14:45:00Z,26.4345,-81.9647,1020.0,1111122 
SCCF RECON,ioos:station:SCCF:16:1,2017-12-03T15:45:00Z,26.4345,-81.9647,1019.9,1111122 
SCCF RECON,ioos:station:SCCF:16:1,2017-12-03T16:45:00Z,26.4345,-81.9647,1019.0,1111122 
SCCF RECON,ioos:station:SCCF:16:1,2017-12-03T17:45:00Z,26.4345,-81.9647,1018.3,1111122 
SCCF RECON,ioos:station:SCCF:16:1,2017-12-03T18:45:00Z,26.4345,-81.9647,1017.4,1111122 
SCCF RECON,ioos:station:SCCF:16:1,2017-12-03T19:45:00Z,26.4345,-81.9647,1017.1,1111122 
SCCF RECON,ioos:station:SCCF:16:1,2017-12-03T20:45:00Z,26.4345,-81.9647,1016.9,1111122 
SCCF RECON,ioos:station:SCCF:16:1,2017-12-03T21:45:00Z,26.4345,-81.9647,1017.2,1111122 
SCCF RECON,ioos:station:SCCF:16:1,2017-12-03T22:45:00Z,26.4345,-81.9647,1017.4,1111122 
SCCF RECON,ioos:station:SCCF:16:1,2017-12-04T05:45:00Z,26.4345,-81.9647,1018.9,1111122 
SCCF RECON,ioos:station:SCCF:16:1,2017-12-04T06:45:00Z,26.4345,-81.9647,1018.8,1111122 
SCCF RECON,ioos:station:SCCF:16:1,2017-12-04T07:45:00Z,26.4345,-81.9647,1018.6,1111122 
SCCF RECON,ioos:station:SCCF:16:1,2017-12-04T08:45:00Z,26.4345,-81.9647,1018.3,1111122 
SCCF RECON,ioos:station:SCCF:16:1,2017-12-04T09:45:00Z,26.4345,-81.9647,1018.4,1111122 
SCCF RECON,ioos:station:SCCF:16:1,2017-12-04T10:45:00Z,26.4345,-81.9647,1019.0,1111122 
SCCF RECON,ioos:station:SCCF:16:1,2017-12-04T11:45:00Z,26.4345,-81.9647,1019.8,1111122 
SCCF RECON,ioos:station:SCCF:16:1,2017-12-04T12:45:00Z,26.4345,-81.9647,1020.5,1111122 
SCCF RECON,ioos:station:SCCF:16:1,2017-12-04T13:45:00Z,26.4345,-81.9647,1020.7,1111122 
SCCF RECON,ioos:station:SCCF:16:1,2017-12-04T14:45:00Z,26.4345,-81.9647,1021.3,1111122 
SCCF RECON,ioos:station:SCCF:16:1,2017-12-04T15:45:00Z,26.4345,-81.9647,1021.2,1111122 
SCCF RECON,ioos:station:SCCF:16:1,2017-12-04T16:45:00Z,26.4345,-81.9647,1020.5,1111122 
SCCF RECON,ioos:station:SCCF:16:1,2017-12-04T17:45:00Z,26.4345,-81.9647,1019.5,1111122 
SCCF RECON,ioos:station:SCCF:16:1,2017-12-04T18:45:00Z,26.4345,-81.9647,1018.9,1111122 
SCCF RECON,ioos:station:SCCF:16:1,2017-12-04T19:45:00Z,26.4345,-81.9647,1018.2,1111122 
SCCF RECON,ioos:station:SCCF:16:1,2017-12-04T20:45:00Z,26.4345,-81.9647,1018.4,1111122 
SCCF RECON,ioos:station:SCCF:16:1,2017-12-04T21:45:00Z,26.4345,-81.9647,1018.6,1111122 
SCCF RECON,ioos:station:SCCF:16:1,2017-12-04T22:45:00Z,26.4345,-81.9647,1018.9,1111122 
SCCF RECON,ioos:station:SCCF:16:1,2017-12-05T05:45:00Z,26.4345,-81.9647,1020.1,1111122 
SCCF RECON,ioos:station:SCCF:16:1,2017-12-05T06:45:00Z,26.4345,-81.9647,1020.1,1111122 
SCCF RECON,ioos:station:SCCF:16:1,2017-12-05T07:45:00Z,26.4345,-81.9647,1020.1,1111122 
SCCF RECON,ioos:station:SCCF:16:1,2017-12-05T08:45:00Z,26.4345,-81.9647,1020.1,1111122 
SCCF RECON,ioos:station:SCCF:16:1,2017-12-05T09:45:00Z,26.4345,-81.9647,1020.2,1111122 
SCCF RECON,ioos:station:SCCF:16:1,2017-12-05T10:45:00Z,26.4345,-81.9647,1020.4,1111122 
SCCF RECON,ioos:station:SCCF:16:1,2017-12-05T11:45:00Z,26.4345,-81.9647,1020.9,1111122 
SCCF RECON,ioos:station:SCCF:16:1,2017-12-05T12:45:00Z,26.4345,-81.9647,1021.2,1111122 
SCCF RECON,ioos:station:SCCF:16:1,2017-12-05T13:45:00Z,26.4345,-81.9647,1021.5,1111122 
SCCF RECON,ioos:station:SCCF:16:1,2017-12-05T14:45:00Z,26.4345,-81.9647,1022.2,1111122 
SCCF RECON,ioos:station:SCCF:16:1,2017-12-05T15:45:00Z,26.4345,-81.9647,1021.7,1111122 
SCCF RECON,ioos:station:SCCF:16:1,2017-12-05T16:45:00Z,26.4345,-81.9647,1021.2,1111122 
SCCF RECON,ioos:station:SCCF:16:1,2017-12-05T17:45:00Z,26.4345,-81.9647,1020.2,1111122 
SCCF RECON,ioos:station:SCCF:16:1,2017-12-05T18:45:00Z,26.4345,-81.9647,1019.2,1111122 
SCCF RECON,ioos:station:SCCF:16:1,2017-12-05T19:45:00Z,26.4345,-81.9647,1018.9,1111122 
SCCF RECON,ioos:station:SCCF:16:1,2017-12-05T20:45:00Z,26.4345,-81.9647,1018.4,1111122 
SCCF RECON,ioos:station:SCCF:16:1,2017-12-05T21:45:00Z,26.4345,-81.9647,1018.6,1111122 
SCCF RECON,ioos:station:SCCF:16:1,2017-12-05T22:45:00Z,26.4345,-81.9647,1018.6,1111122 
SCCF RECON,ioos:station:SCCF:16:1,2017-12-06T05:45:00Z,26.4345,-81.9647,1019.4,1111122 
SCCF RECON,ioos:station:SCCF:16:1,2017-12-06T06:45:00Z,26.4345,-81.9647,1019.0,1111122 
SCCF RECON,ioos:station:SCCF:16:1,2017-12-06T07:45:00Z,26.4345,-81.9647,1018.9,1111122 
SCCF RECON,ioos:station:SCCF:16:1,2017-12-06T08:45:00Z,26.4345,-81.9647,1018.6,1111122 
SCCF RECON,ioos:station:SCCF:16:1,2017-12-06T09:45:00Z,26.4345,-81.9647,1018.3,1111122 
SCCF RECON,ioos:station:SCCF:16:1,2017-12-06T10:45:00Z,26.4345,-81.9647,1018.1,1111122 
SCCF RECON,ioos:station:SCCF:16:1,2017-12-06T11:45:00Z,26.4345,-81.9647,1018.6,1111122 
SCCF RECON,ioos:station:SCCF:16:1,2017-12-06T12:45:00Z,26.4345,-81.9647,1018.9,1111122 
SCCF RECON,ioos:station:SCCF:16:1,2017-12-06T13:45:00Z,26.4345,-81.9647,1019.0,1111122 
SCCF RECON,ioos:station:SCCF:16:1,2017-12-06T14:45:00Z,26.4345,-81.9647,1019.5,1111122 
SCCF RECON,ioos:station:SCCF:16:1,2017-12-06T15:45:00Z,26.4345,-81.9647,1019.2,1111122 
SCCF RECON,ioos:station:SCCF:16:1,2017-12-06T16:45:00Z,26.4345,-81.9647,1018.6,1111122 
SCCF RECON,ioos:station:SCCF:16:1,2017-12-06T17:45:00Z,26.4345,-81.9647,1017.7,1111122 
SCCF RECON,ioos:station:SCCF:16:1,2017-12-06T18:45:00Z,26.4345,-81.9647,1016.8,1111122 
SCCF RECON,ioos:station:SCCF:16:1,2017-12-06T19:45:00Z,26.4345,-81.9647,1016.4,1111122 
SCCF RECON,ioos:station:SCCF:16:1,2017-12-06T20:45:00Z,26.4345,-81.9647,1016.6,1111122 
SCCF RECON,ioos:station:SCCF:16:1,2017-12-06T21:45:00Z,26.4345,-81.9647,1016.3,1111122 
SCCF RECON,ioos:station:SCCF:16:1,2017-12-06T22:45:00Z,26.4345,-81.9647,1016.4,1111122 
SCCF RECON,ioos:station:SCCF:16:1,2017-12-07T05:45:00Z,26.4345,-81.9647,1016.3,1111122 
SCCF RECON,ioos:station:SCCF:16:1,2017-12-07T06:45:00Z,26.4345,-81.9647,1015.8,1111122 
SCCF RECON,ioos:station:SCCF:16:1,2017-12-07T07:45:00Z,26.4345,-81.9647,1015.6,1111122 
SCCF RECON,ioos:station:SCCF:16:1,2017-12-07T08:45:00Z,26.4345,-81.9647,1015.6,1111122 
SCCF RECON,ioos:station:SCCF:16:1,2017-12-07T09:45:00Z,26.4345,-81.9647,1015.3,1111122 
SCCF RECON,ioos:station:SCCF:16:1,2017-12-07T10:45:00Z,26.4345,-81.9647,1015.3,1111122 
SCCF RECON,ioos:station:SCCF:16:1,2017-12-07T11:45:00Z,26.4345,-81.9647,1015.3,1111122 
SCCF RECON,ioos:station:SCCF:16:1,2017-12-07T12:45:00Z,26.4345,-81.9647,1015.8,1111122 
SCCF RECON,ioos:station:SCCF:16:1,2017-12-07T13:45:00Z,26.4345,-81.9647,1016.1,1111122 
SCCF RECON,ioos:station:SCCF:16:1,2017-12-07T14:45:00Z,26.4345,-81.9647,1016.3,1111122 
SCCF RECON,ioos:station:SCCF:16:1,2017-12-07T15:45:00Z,26.4345,-81.9647,1015.9,1111122 
SCCF RECON,ioos:station:SCCF:16:1,2017-12-07T16:45:00Z,26.4345,-81.9647,1015.3,1111122 
SCCF RECON,ioos:station:SCCF:16:1,2017-12-07T17:45:00Z,26.4345,-81.9647,1014.1,1111122 
SCCF RECON,ioos:station:SCCF:16:1,2017-12-07T18:45:00Z,26.4345,-81.9647,1013.3,1111122 
SCCF RECON,ioos:station:SCCF:16:1,2017-12-07T19:45:00Z,26.4345,-81.9647,1012.7,1111122 
SCCF RECON,ioos:station:SCCF:16:1,2017-12-07T20:45:00Z,26.4345,-81.9647,1012.2,1111122 
SCCF RECON,ioos:station:SCCF:16:1,2017-12-12T19:45:00Z,26.4345,-81.9647,1014.2,1111122 
SCCF RECON,ioos:station:SCCF:16:1,2017-12-12T20:45:00Z,26.4345,-81.9647,1014.2,1111122 
SCCF RECON,ioos:station:SCCF:16:1,2017-12-12T21:45:00Z,26.4345,-81.9647,1014.0,1111122 
SCCF RECON,ioos:station:SCCF:16:1,2017-12-12T22:45:00Z,26.4345,-81.9647,1014.0,1111122 
SCCF RECON,ioos:station:SCCF:16:1,2017-12-13T09:45:00Z,26.4345,-81.9647,1017.0,1111122 
SCCF RECON,ioos:station:SCCF:16:1,2017-12-13T10:45:00Z,26.4345,-81.9647,1017.6,1111122 
SCCF RECON,ioos:station:SCCF:16:1,2017-12-13T11:45:00Z,26.4345,-81.9647,1018.6,1111122 
SCCF RECON,ioos:station:SCCF:16:1,2017-12-13T12:45:00Z,26.4345,-81.9647,1019.6,1111122 
SCCF RECON,ioos:station:SCCF:16:1,2017-12-13T13:45:00Z,26.4345,-81.9647,1020.1,1111122 
SCCF RECON,ioos:station:SCCF:16:1,2017-12-13T14:45:00Z,26.4345,-81.9647,1020.6,1111122 
SCCF RECON,ioos:station:SCCF:16:1,2017-12-13T17:45:00Z,26.4345,-81.9647,1018.6,1111122 
SCCF RECON,ioos:station:SCCF:16:1,2017-12-13T18:45:00Z,26.4345,-81.9647,1017.6,1111122 
SCCF RECON,ioos:station:SCCF:16:1,2017-12-13T19:45:00Z,26.4345,-81.9647,1017.7,1111122 
SCCF RECON,ioos:station:SCCF:16:1,2017-12-13T20:45:00Z,26.4345,-81.9647,1017.0,1111122 
SCCF RECON,ioos:station:SCCF:16:1,2017-12-13T21:45:00Z,26.4345,-81.9647,1017.3,1111122 
SCCF RECON,ioos:station:SCCF:16:1,2017-12-13T22:45:00Z,26.4345,-81.9647,1017.8,1111122 
SCCF RECON,ioos:station:SCCF:16:1,2017-12-14T11:45:00Z,26.4345,-81.9647,1017.5,1111122 
SCCF RECON,ioos:station:SCCF:16:1,2017-12-14T12:45:00Z,26.4345,-81.9647,1018.1,1111122 
SCCF RECON,ioos:station:SCCF:16:1,2017-12-14T13:45:00Z,26.4345,-81.9647,1018.1,1111122 
SCCF RECON,ioos:station:SCCF:16:1,2017-12-14T14:45:00Z,26.4345,-81.9647,1018.9,1111122 
SCCF RECON,ioos:station:SCCF:16:1,2017-12-14T15:45:00Z,26.4345,-81.9647,1019.1,1111122 
SCCF RECON,ioos:station:SCCF:16:1,2017-12-14T16:45:00Z,26.4345,-81.9647,1018.2,1111122 
SCCF RECON,ioos:station:SCCF:16:1,2017-12-14T17:45:00Z,26.4345,-81.9647,1017.6,1111122 
SCCF RECON,ioos:station:SCCF:16:1,2017-12-14T18:45:00Z,26.4345,-81.9647,1016.9,1111122 
SCCF RECON,ioos:station:SCCF:16:1,2017-12-14T19:45:00Z,26.4345,-81.9647,1016.6,1111122 
SCCF RECON,ioos:station:SCCF:16:1,2017-12-14T20:45:00Z,26.4345,-81.9647,1016.3,1111122 
SCCF RECON,ioos:station:SCCF:16:1,2017-12-14T21:45:00Z,26.4345,-81.9647,1016.5,1111122 
SCCF RECON,ioos:station:SCCF:16:1,2017-12-14T22:45:00Z,26.4345,-81.9647,1016.9,1111122 
SCCF RECON,ioos:station:SCCF:16:1,2017-12-15T05:45:00Z,26.4345,-81.9647,1017.8,1111122 
SCCF RECON,ioos:station:SCCF:16:1,2017-12-15T06:45:00Z,26.4345,-81.9647,1017.6,1111122 
SCCF RECON,ioos:station:SCCF:16:1,2017-12-15T07:45:00Z,26.4345,-81.9647,1017.6,1111122 
SCCF RECON,ioos:station:SCCF:16:1,2017-12-15T08:45:00Z,26.4345,-81.9647,1017.3,1111122 
SCCF RECON,ioos:station:SCCF:16:1,2017-12-15T09:45:00Z,26.4345,-81.9647,1017.1,1111122 
SCCF RECON,ioos:station:SCCF:16:1,2017-12-15T10:45:00Z,26.4345,-81.9647,1017.6,1111122 
SCCF RECON,ioos:station:SCCF:16:1,2017-12-15T11:45:00Z,26.4345,-81.9647,1017.6,1111122 
SCCF RECON,ioos:station:SCCF:16:1,2017-12-15T12:45:00Z,26.4345,-81.9647,1018.1,1111122 
SCCF RECON,ioos:station:SCCF:16:1,2017-12-15T13:45:00Z,26.4345,-81.9647,1018.9,1111122 
SCCF RECON,ioos:station:SCCF:16:1,2017-12-15T14:45:00Z,26.4345,-81.9647,1019.2,1111122 
SCCF RECON,ioos:station:SCCF:16:1,2017-12-15T15:45:00Z,26.4345,-81.9647,1019.4,1111122 
SCCF RECON,ioos:station:SCCF:16:1,2017-12-15T16:45:00Z,26.4345,-81.9647,1019.2,1111122 
SCCF RECON,ioos:station:SCCF:16:1,2017-12-15T17:45:00Z,26.4345,-81.9647,1018.3,1111122 
SCCF RECON,ioos:station:SCCF:16:1,2017-12-15T18:45:00Z,26.4345,-81.9647,1018.1,1111122 
SCCF RECON,ioos:station:SCCF:16:1,2017-12-15T19:45:00Z,26.4345,-81.9647,1017.9,1111122 
SCCF RECON,ioos:station:SCCF:16:1,2017-12-15T20:45:00Z,26.4345,-81.9647,1018.0,1111122 
SCCF RECON,ioos:station:SCCF:16:1,2017-12-15T21:45:00Z,26.4345,-81.9647,1018.2,1111122 
SCCF RECON,ioos:station:SCCF:16:1,2017-12-15T22:45:00Z,26.4345,-81.9647,1018.7,1111122 
SCCF RECON,ioos:station:SCCF:16:1,2017-12-16T05:45:00Z,26.4345,-81.9647,1021.2,1111122 
SCCF RECON,ioos:station:SCCF:16:1,2017-12-16T06:45:00Z,26.4345,-81.9647,1020.7,1111122 
SCCF RECON,ioos:station:SCCF:16:1,2017-12-16T07:45:00Z,26.4345,-81.9647,1020.6,1111122 
SCCF RECON,ioos:station:SCCF:16:1,2017-12-16T08:45:00Z,26.4345,-81.9647,1020.1,1111122 
SCCF RECON,ioos:station:SCCF:16:1,2017-12-16T09:45:00Z,26.4345,-81.9647,1020.1,1111122 
SCCF RECON,ioos:station:SCCF:16:1,2017-12-16T10:45:00Z,26.4345,-81.9647,1020.1,1111122 
SCCF RECON,ioos:station:SCCF:16:1,2017-12-16T11:45:00Z,26.4345,-81.9647,1020.9,1111122 
SCCF RECON,ioos:station:SCCF:16:1,2017-12-16T12:45:00Z,26.4345,-81.9647,1021.5,1111122 
SCCF RECON,ioos:station:SCCF:16:1,2017-12-16T13:45:00Z,26.4345,-81.9647,1022.5,1111122 
SCCF RECON,ioos:station:SCCF:16:1,2017-12-16T14:45:00Z,26.4345,-81.9647,1023.0,1111122 
SCCF RECON,ioos:station:SCCF:16:1,2017-12-16T15:45:00Z,26.4345,-81.9647,1023.0,1111122 
SCCF RECON,ioos:station:SCCF:16:1,2017-12-16T16:45:00Z,26.4345,-81.9647,1022.5,1111122 
SCCF RECON,ioos:station:SCCF:16:1,2017-12-16T17:45:00Z,26.4345,-81.9647,1021.4,1111122 
SCCF RECON,ioos:station:SCCF:16:1,2017-12-16T18:45:00Z,26.4345,-81.9647,1020.6,1111122 
SCCF RECON,ioos:station:SCCF:16:1,2017-12-16T19:45:00Z,26.4345,-81.9647,1020.1,1111122 
SCCF RECON,ioos:station:SCCF:16:1,2017-12-16T20:45:00Z,26.4345,-81.9647,1020.2,1111122 
SCCF RECON,ioos:station:SCCF:16:1,2017-12-16T21:45:00Z,26.4345,-81.9647,1020.7,1111122 
SCCF RECON,ioos:station:SCCF:16:1,2017-12-16T22:45:00Z,26.4345,-81.9647,1021.0,1111122 
SCCF RECON,ioos:station:SCCF:16:1,2017-12-17T05:45:00Z,26.4345,-81.9647,1022.8,1111122 
SCCF RECON,ioos:station:SCCF:16:1,2017-12-17T06:45:00Z,26.4345,-81.9647,1022.5,1111122 
SCCF RECON,ioos:station:SCCF:16:1,2017-12-17T07:45:00Z,26.4345,-81.9647,1022.3,1111122 
SCCF RECON,ioos:station:SCCF:16:1,2017-12-17T08:45:00Z,26.4345,-81.9647,1022.1,1111122 
SCCF RECON,ioos:station:SCCF:16:1,2017-12-17T09:45:00Z,26.4345,-81.9647,1021.8,1111122 
SCCF RECON,ioos:station:SCCF:16:1,2017-12-17T10:45:00Z,26.4345,-81.9647,1022.0,1111122 
SCCF RECON,ioos:station:SCCF:16:1,2017-12-17T11:45:00Z,26.4345,-81.9647,1022.4,1111122 
SCCF RECON,ioos:station:SCCF:16:1,2017-12-17T12:45:00Z,26.4345,-81.9647,1022.4,1111122 
SCCF RECON,ioos:station:SCCF:16:1,2017-12-17T13:45:00Z,26.4345,-81.9647,1022.8,1111122 
SCCF RECON,ioos:station:SCCF:16:1,2017-12-17T14:45:00Z,26.4345,-81.9647,1023.5,1111122 
SCCF RECON,ioos:station:SCCF:16:1,2017-12-17T15:45:00Z,26.4345,-81.9647,1023.6,1111122 
SCCF RECON,ioos:station:SCCF:16:1,2017-12-17T16:45:00Z,26.4345,-81.9647,1022.8,1111122 
SCCF RECON,ioos:station:SCCF:16:1,2017-12-17T17:45:00Z,26.4345,-81.9647,1021.7,1111122 
SCCF RECON,ioos:station:SCCF:16:1,2017-12-17T18:45:00Z,26.4345,-81.9647,1020.7,1111122 
SCCF RECON,ioos:station:SCCF:16:1,2017-12-17T19:45:00Z,26.4345,-81.9647,1020.6,1111122 
SCCF RECON,ioos:station:SCCF:16:1,2017-12-17T20:45:00Z,26.4345,-81.9647,1020.7,1111122 
SCCF RECON,ioos:station:SCCF:16:1,2017-12-17T21:45:00Z,26.4345,-81.9647,1021.1,1111122 
SCCF RECON,ioos:station:SCCF:16:1,2017-12-17T22:45:00Z,26.4345,-81.9647,1021.3,1111122 
SCCF RECON,ioos:station:SCCF:16:1,2017-12-18T05:45:00Z,26.4345,-81.9647,1022.3,1111122 
SCCF RECON,ioos:station:SCCF:16:1,2017-12-18T06:45:00Z,26.4345,-81.9647,1022.3,1111122 
SCCF RECON,ioos:station:SCCF:16:1,2017-12-18T07:45:00Z,26.4345,-81.9647,1022.0,1111122 
SCCF RECON,ioos:station:SCCF:16:1,2017-12-18T08:45:00Z,26.4345,-81.9647,1022.0,1111122 
SCCF RECON,ioos:station:SCCF:16:1,2017-12-18T09:45:00Z,26.4345,-81.9647,1021.9,1111122 
SCCF RECON,ioos:station:SCCF:16:1,2017-12-18T10:45:00Z,26.4345,-81.9647,1021.9,1111122 
SCCF RECON,ioos:station:SCCF:16:1,2017-12-18T11:45:00Z,26.4345,-81.9647,1022.3,1111122 
SCCF RECON,ioos:station:SCCF:16:1,2017-12-18T12:45:00Z,26.4345,-81.9647,1022.8,1111122 
SCCF RECON,ioos:station:SCCF:16:1,2017-12-18T13:45:00Z,26.4345,-81.9647,1023.0,1111122 
SCCF RECON,ioos:station:SCCF:16:1,2017-12-18T14:45:00Z,26.4345,-81.9647,1023.4,1111122 
SCCF RECON,ioos:station:SCCF:16:1,2017-12-18T15:45:00Z,26.4345,-81.9647,1023.5,1111122 
SCCF RECON,ioos:station:SCCF:16:1,2017-12-18T16:45:00Z,26.4345,-81.9647,1023.0,1111122 
SCCF RECON,ioos:station:SCCF:16:1,2017-12-18T17:45:00Z,26.4345,-81.9647,1022.0,1111122 
SCCF RECON,ioos:station:SCCF:16:1,2017-12-18T18:45:00Z,26.4345,-81.9647,1021.5,1111122 
SCCF RECON,ioos:station:SCCF:16:1,2017-12-18T19:45:00Z,26.4345,-81.9647,1021.2,1111122 
SCCF RECON,ioos:station:SCCF:16:1,2017-12-18T20:45:00Z,26.4345,-81.9647,1020.8,1111122 
SCCF RECON,ioos:station:SCCF:16:1,2017-12-19T05:45:00Z,26.4345,-81.9647,1023.3,1111122 
SCCF RECON,ioos:station:SCCF:16:1,2017-12-19T06:45:00Z,26.4345,-81.9647,1022.7,1111122 
SCCF RECON,ioos:station:SCCF:16:1,2017-12-19T07:45:00Z,26.4345,-81.9647,1022.5,1111122 
SCCF RECON,ioos:station:SCCF:16:1,2017-12-19T08:45:00Z,26.4345,-81.9647,1022.3,1111122 
SCCF RECON,ioos:station:SCCF:16:1,2017-12-19T09:45:00Z,26.4345,-81.9647,1022.2,1111122 
SCCF RECON,ioos:station:SCCF:16:1,2017-12-19T10:45:00Z,26.4345,-81.9647,1022.5,1111122 
SCCF RECON,ioos:station:SCCF:16:1,2017-12-19T11:45:00Z,26.4345,-81.9647,1022.8,1111122 
SCCF RECON,ioos:station:SCCF:16:1,2017-12-19T12:45:00Z,26.4345,-81.9647,1023.5,1111122 
SCCF RECON,ioos:station:SCCF:16:1,2017-12-19T13:45:00Z,26.4345,-81.9647,1023.8,1111122 
SCCF RECON,ioos:station:SCCF:16:1,2017-12-19T14:45:00Z,26.4345,-81.9647,1024.1,1111122 
SCCF RECON,ioos:station:SCCF:16:1,2017-12-19T15:45:00Z,26.4345,-81.9647,1024.1,1111122 
SCCF RECON,ioos:station:SCCF:16:1,2017-12-19T16:45:00Z,26.4345,-81.9647,1023.2,1111122 
SCCF RECON,ioos:station:SCCF:16:1,2017-12-19T17:45:00Z,26.4345,-81.9647,1022.1,1111122 
SCCF RECON,ioos:station:SCCF:16:1,2017-12-19T18:45:00Z,26.4345,-81.9647,1021.2,1111122 
SCCF RECON,ioos:station:SCCF:16:1,2017-12-19T19:45:00Z,26.4345,-81.9647,1020.5,1111122 
SCCF RECON,ioos:station:SCCF:16:1,2017-12-19T20:45:00Z,26.4345,-81.9647,1020.1,1111122 
SCCF RECON,ioos:station:SCCF:16:1,2017-12-19T21:45:00Z,26.4345,-81.9647,1020.0,1111122 
SCCF RECON,ioos:station:SCCF:16:1,2017-12-19T22:45:00Z,26.4345,-81.9647,1020.0,1111122 
SCCF RECON,ioos:station:SCCF:16:1,2017-12-20T05:45:00Z,26.4345,-81.9647,1020.7,1111122 
SCCF RECON,ioos:station:SCCF:16:1,2017-12-20T06:45:00Z,26.4345,-81.9647,1020.1,1111122 
SCCF RECON,ioos:station:SCCF:16:1,2017-12-20T07:45:00Z,26.4345,-81.9647,1019.6,1111122 
SCCF RECON,ioos:station:SCCF:16:1,2017-12-20T08:45:00Z,26.4345,-81.9647,1019.4,1111122 
SCCF RECON,ioos:station:SCCF:16:1,2017-12-20T09:45:00Z,26.4345,-81.9647,1018.9,1111122 
SCCF RECON,ioos:station:SCCF:16:1,2017-12-20T10:45:00Z,26.4345,-81.9647,1019.1,1111122 
SCCF RECON,ioos:station:SCCF:16:1,2017-12-20T11:45:00Z,26.4345,-81.9647,1019.2,1111122 
SCCF RECON,ioos:station:SCCF:16:1,2017-12-20T12:45:00Z,26.4345,-81.9647,1019.6,1111122 
SCCF RECON,ioos:station:SCCF:16:1,2017-12-20T13:45:00Z,26.4345,-81.9647,1020.1,1111122 
SCCF RECON,ioos:station:SCCF:16:1,2017-12-20T14:45:00Z,26.4345,-81.9647,1020.5,1111122 
SCCF RECON,ioos:station:SCCF:16:1,2017-12-20T15:45:00Z,26.4345,-81.9647,1020.3,1111122 
SCCF RECON,ioos:station:SCCF:16:1,2017-12-20T16:45:00Z,26.4345,-81.9647,1019.7,1111122 
SCCF RECON,ioos:station:SCCF:16:1,2017-12-20T17:45:00Z,26.4345,-81.9647,1018.9,1111122 
SCCF RECON,ioos:station:SCCF:16:1,2017-12-20T18:45:00Z,26.4345,-81.9647,1018.2,1111122 
SCCF RECON,ioos:station:SCCF:16:1,2017-12-20T19:45:00Z,26.4345,-81.9647,1017.6,1111122 
SCCF RECON,ioos:station:SCCF:16:1,2017-12-20T20:45:00Z,26.4345,-81.9647,1017.3,1111122 
SCCF RECON,ioos:station:SCCF:16:1,2017-12-20T21:45:00Z,26.4345,-81.9647,1017.4,1111122 
SCCF RECON,ioos:station:SCCF:16:1,2017-12-20T22:45:00Z,26.4345,-81.9647,1016.9,1111122 
SCCF RECON,ioos:station:SCCF:16:1,2017-12-21T05:45:00Z,26.4345,-81.9647,1016.9,1111122 
SCCF RECON,ioos:station:SCCF:16:1,2017-12-21T06:45:00Z,26.4345,-81.9647,1016.5,1111122 
SCCF RECON,ioos:station:SCCF:16:1,2017-12-21T07:45:00Z,26.4345,-81.9647,1016.3,1111122 
SCCF RECON,ioos:station:SCCF:16:1,2017-12-21T08:45:00Z,26.4345,-81.9647,1016.3,1111122 
SCCF RECON,ioos:station:SCCF:16:1,2017-12-21T09:45:00Z,26.4345,-81.9647,1016.2,1111122 
SCCF RECON,ioos:station:SCCF:16:1,2017-12-21T10:45:00Z,26.4345,-81.9647,1016.5,1111122 
SCCF RECON,ioos:station:SCCF:16:1,2017-12-21T11:45:00Z,26.4345,-81.9647,1017.2,1111122 
SCCF RECON,ioos:station:SCCF:16:1,2017-12-21T12:45:00Z,26.4345,-81.9647,1018.1,1111122 
SCCF RECON,ioos:station:SCCF:16:1,2017-12-21T13:45:00Z,26.4345,-81.9647,1018.6,1111122 
SCCF RECON,ioos:station:SCCF:16:1,2017-12-21T14:45:00Z,26.4345,-81.9647,1019.2,1111122 
SCCF RECON,ioos:station:SCCF:16:1,2017-12-21T15:45:00Z,26.4345,-81.9647,1019.2,1111122 
SCCF RECON,ioos:station:SCCF:16:1,2017-12-21T16:45:00Z,26.4345,-81.9647,1019.1,1111122 
SCCF RECON,ioos:station:SCCF:16:1,2017-12-21T17:45:00Z,26.4345,-81.9647,1018.1,1111122 
SCCF RECON,ioos:station:SCCF:16:1,2017-12-21T18:45:00Z,26.4345,-81.9647,1017.6,1111122 